Zurück zum Katalog

COSMOS 2418

GLONASS

AktivNavigationMEO
NORAD 28916·PAYLOAD·🇷🇺 Russia

Gestartet Dec 25, 2005 von Baikonur Cosmodrome

Loading…

Nächste Überflüge (nächste 24 Stunden)

TLE

AktuellSource: Space-Track

Epoche: Sep 14, 2026, 19:06 UTC

1 28916U 05050B   26257.79650770 -.00000056  00000-0  00000-0 0  9991
2 28916  65.5366 313.2639 0013284 274.5830  83.4566  2.13106247161166

Verfolge COSMOS 2418 in Echtzeit mit AllMySat

Download on the App Store